Portada
METAR-TAF:

METAR-TAF

Aeropuertos :

Effingham County Memorial Airport

Effingham, Illinois, Estados Unidos

latitud: 39-04-14N, longitud: 088-32-00W, altitud: 179 m

Observación

El informe se hizo hace 27 minutos, a las 21:55 UTC
Viento 6 kt del noroeste
Temperatura 26°C
Humedad 61%
Presión 1018 hPa
Visibilidad: 16.1 km
Nubes dispersas a una altura de 4200 ft
Nubes dispersas a una altura de 5000 ft

METAR: K1H2 012155Z AUTO 32006KT 10SM SCT042 SCT050 26/18 A3005 RMK AO2

Hora: 17:22 (22:22 UTC)


TAF: falta

Observaciones y pronósticos meteorológicos de más de 4000 aeropuertos (mensajes METAR y TAF).

Los puntos amarillos y rojos representan las estaciones disponibles.

Ponga el ratón en el punto deseado para ver el nombre de la estación.

Haga clic para ver las observaciones y los pronósticos meteorológicos.

Para cambiar el mapa : haga clic en los botones verdes con una cruz de color negro para hacer un zoom, en el botón verde con un guión para alejar o en las flechas verdes para mapas adyacentes.


METAR-TAF: